• Join FlightAware (Why Join?)
  • Login
  • US Flag 
05:44PM EST


 

Airport Tracker/Info


-or-


 

Live Flight TrackerFlight Track Log ✈ N690TW ✈ 10-Nov-2013 ✈ KGEU - KBJC

Flight Track Log - Related Links

Times and Time Zones

All times are in EST time to prevent confusion due to time zone crossing. See the N690TW flight status page for this flight to view local times or setup timezone preferences in your user account.

Time Position Orientation Groundspeed Altitude Reporting Facility
EST Latitude Longitude Course Direction KTS MPH feet Rate Location/Type
10:58PM 33.5333 -112.2833 18° North 184 212 1,400  Level Phoenix TRACON
10:59PM 33.5831 -112.2642 18° North 161 185 3,300 1,500 Climbing Albuquerque Center
10:59PM 33.5950 -112.2403 59° Northeast 167 192 3,900 480 Climbing Albuquerque Center
11:00PM 33.6103 -112.2139 55° Northeast 200 230 3,800 360 Descending Albuquerque Center
11:00PM 33.6342 -112.1947 34° Northeast 202 232 4,300 1,140 Climbing Albuquerque Center
11:01PM 33.6658 -112.2022 349° North 209 241 5,000 1,260 Climbing Albuquerque Center
11:01PM 33.6883 -112.2053 354° North 197 227 5,600 1,260 Climbing Albuquerque Center
11:02PM 33.7186 -112.2117 350° North 199 229 6,300 1,440 Climbing Albuquerque Center
11:02PM 33.7425 -112.2175 349° North 198 228 7,100 1,680 Climbing Albuquerque Center
11:03PM 33.7731 -112.2283 344° North 195 224 8,000 1,560 Climbing Albuquerque Center
11:03PM 33.7958 -112.2322 352° North 197 227 8,700 1,560 Climbing Albuquerque Center
11:04PM 33.8247 -112.2431 343° North 196 226 9,600 1,560 Climbing Albuquerque Center
11:04PM 33.8497 -112.2467 353° North 198 228 10,300 1,680 Climbing Albuquerque Center
11:05PM 33.8806 -112.2569 345° North 197 227 11,300 1,560 Climbing Albuquerque Center
11:05PM 33.9025 -112.2611 351° North 195 224 11,900 1,440 Climbing Albuquerque Center
11:06PM 33.9342 -112.2714 345° North 199 229 12,800 1,020 Climbing Albuquerque Center
11:06PM 33.9581 -112.2772 349° North 204 235 13,000 180 Climbing Albuquerque Center
11:07PM 33.9992 -112.2881 348° North 238 274 13,000  Level Albuquerque Center
11:07PM 34.0253 -112.2947 348° North 241 277 13,000 300 Level Albuquerque Center
11:08PM 34.0644 -112.3072 345° North 264 304 13,300 840 Climbing Albuquerque Center
11:08PM 34.0944 -112.3133 350° North 253 291 13,900 1,320 Climbing Albuquerque Center
11:09PM 34.1333 -112.3228 349° North 239 275 14,700 1,320 Climbing Albuquerque Center
11:10PM 34.1572 -112.3303 345° North 234 269 15,300 1,200 Climbing Albuquerque Center
11:11PM 34.2131 -112.3022 23° Northeast 235 270 16,600 1,200 Climbing Albuquerque Center
11:12PM 34.2594 -112.2483 44° Northeast 233 268 17,800 1,320 Climbing Albuquerque Center
11:13PM 34.3042 -112.1947 45° Northeast 228 262 19,300 1,620 Climbing Albuquerque Center
11:14PM 34.3583 -112.1303 44° Northeast 227 261 21,100 1,620 Climbing Albuquerque Center
11:15PM 34.4050 -112.0758 44° Northeast 230 265 22,600 1,500 Climbing Albuquerque Center
11:16PM 34.4519 -112.0186 45° Northeast 236 272 24,200 1,440 Climbing Albuquerque Center
11:17PM 34.4989 -111.9628 44° Northeast 236 272 25,600 1,200 Climbing Albuquerque Center
11:18PM 34.5467 -111.9058 44° Northeast 238 274 26,700 1,080 Climbing Albuquerque Center
11:19PM 34.5956 -111.8469 45° Northeast 244 281 27,800 1,080 Climbing Albuquerque Center
11:20PM 34.6461 -111.7858 45° Northeast 252 290 28,900 900 Climbing Albuquerque Center
11:21PM 34.6972 -111.7233 45° Northeast 257 296 29,700 780 Climbing Albuquerque Center
11:22PM 34.7494 -111.6600 45° Northeast 263 303 30,600 780 Climbing Albuquerque Center
11:23PM 34.8014 -111.5956 46° Northeast 266 306 31,300 660 Climbing Albuquerque Center
11:24PM 34.8558 -111.5311 44° Northeast 269 310 32,000 660 Climbing Albuquerque Center
11:25PM 34.9086 -111.4656 46° Northeast 272 313 32,700 480 Climbing Albuquerque Center
11:26PM 34.9728 -111.3872 45° Northeast 271 312 33,000 120 Climbing Albuquerque Center
11:27PM 35.0297 -111.3197 44° Northeast 281 323 33,000  Level Albuquerque Center
11:28PM 35.0858 -111.2481 46° Northeast 288 331 33,000  Level Albuquerque Center
11:29PM 35.1436 -111.1772 45° Northeast 293 337 33,000  Level Albuquerque Center
11:30PM 35.2022 -111.1061 45° Northeast 295 339 33,000  Level Albuquerque Center
11:31PM 35.2639 -111.0281 46° Northeast 297 342 33,000  Level Albuquerque Center
11:32PM 35.3189 -110.9603 45° Northeast 294 338 33,000  Level Albuquerque Center
11:33PM 35.3847 -110.8797 45° Northeast 298 343 33,000  Level Albuquerque Center
11:34PM 35.4411 -110.8089 46° Northeast 302 348 33,000  Level Albuquerque Center
11:35PM 35.4972 -110.7397 45° Northeast 300 345 33,000  Level Albuquerque Center
11:36PM 35.5622 -110.6586 45° Northeast 298 343 33,000  Level Albuquerque Center
11:37PM 35.6178 -110.5900 45° Northeast 297 342 33,000  Level Albuquerque Center
11:38PM 35.6803 -110.5094 46° Northeast 293 337 33,000  Level Albuquerque Center
11:39PM 35.7356 -110.4411 45° Northeast 294 338 33,000  Level Albuquerque Center
11:40PM 35.7914 -110.3714 45° Northeast 296 341 33,000  Level Albuquerque Center
11:41PM 35.8556 -110.2900 46° Northeast 297 342 33,000  Level Albuquerque Center
11:42PM 35.9114 -110.2208 45° Northeast 297 342 33,000  Level Albuquerque Center
11:43PM 35.9656 -110.1519 46° Northeast 294 338 33,000  Level Albuquerque Center
11:44PM 36.0194 -110.0833 46° Northeast 295 339 33,000  Level Denver Center
11:45PM 36.0739 -110.0142 46° Northeast 293 337 33,000  Level Denver Center
11:46PM 36.1392 -109.9331 45° Northeast 295 339 33,000  Level Denver Center
11:47PM 36.1928 -109.8628 47° Northeast 295 339 33,000  Level Denver Center
11:48PM 36.2467 -109.7933 46° Northeast 293 337 33,000  Level Denver Center
11:49PM 36.3100 -109.7125 46° Northeast 292 336 33,000  Level Denver Center
11:50PM 36.3644 -109.6422 46° Northeast 293 337 33,000  Level Denver Center
11:51PM 36.4172 -109.5736 46° Northeast 289 333 33,000  Level Denver Center
11:52PM 36.4814 -109.4906 46° Northeast 297 342 33,000  Level Denver Center
11:53PM 36.5356 -109.4214 46° Northeast 293 337 33,000  Level Denver Center
11:54PM 36.5903 -109.3500 46° Northeast 296 341 33,000  Level Denver Center
11:55PM 36.6556 -109.2658 46° Northeast 299 344 33,000  Level Denver Center
11:56PM 36.7103 -109.1944 46° Northeast 298 343 33,000  Level Denver Center
11:57PM 36.7650 -109.1222 47° Northeast 299 344 33,000  Level Denver Center
11:58PM 36.8297 -109.0381 46° Northeast 300 345 33,000  Level Denver Center
11:59PM 36.8842 -108.9658 47° Northeast 298 343 33,000  Level Denver Center
12:00AM 36.9394 -108.8931 46° Northeast 300 345 33,000  Level Denver Center
12:01AM 37.0025 -108.8089 47° Northeast 297 342 33,000  Level Denver Center
12:02AM 37.0569 -108.7381 46° Northeast 296 341 33,000  Level Denver Center
12:03AM 37.1122 -108.6631 47° Northeast 302 348 33,000  Level Denver Center
12:04AM 37.1750 -108.5792 47° Northeast 298 343 33,000  Level Denver Center
12:05AM 37.2297 -108.5086 46° Northeast 295 339 33,000  Level Denver Center
12:06AM 37.2925 -108.4256 46° Northeast 294 338 33,000  Level Denver Center
12:07AM 37.3469 -108.3533 47° Northeast 296 341 33,000  Level Denver Center
12:08AM 37.4006 -108.2794 48° Northeast 296 341 33,000  Level Denver Center
12:09AM 37.4636 -108.1942 47° Northeast 299 344 33,000  Level Denver Center
12:10AM 37.5181 -108.1214 47° Northeast 297 342 33,000  Level Denver Center
12:11AM 37.5717 -108.0469 48° Northeast 299 344 33,000  Level Denver Center
12:12AM 37.6342 -107.9619 47° Northeast 298 343 33,000  Level Denver Center
12:13AM 37.6883 -107.8889 47° Northeast 297 342 33,000  Level Denver Center
12:15AM 37.7422 -107.8186 46° Northeast 292 336 33,000  Level Denver Center
12:16AM 37.8036 -107.7333 48° Northeast 292 336 33,000  Level Denver Center
12:17AM 37.8572 -107.6603 47° Northeast 294 338 33,000  Level Denver Center
12:18AM 37.9108 -107.5861 47° Northeast 298 343 33,000  Level Denver Center
12:19AM 37.9728 -107.5006 47° Northeast 295 339 33,000  Level Denver Center
12:20AM 38.0264 -107.4286 47° Northeast 294 338 33,000  Level Denver Center
12:21AM 38.0856 -107.3458 48° Northeast 295 339 33,000  Level Denver Center
12:22AM 38.1375 -107.2736 48° Northeast 291 335 33,000  Level Denver Center
12:23AM 38.1978 -107.1881 48° Northeast 291 335 33,000  Level Denver Center
12:24AM 38.2433 -107.1261 47° Northeast 288 331 33,000  Level Denver Center
12:25AM 38.2972 -107.0519 47° Northeast 286 329 33,000  Level Denver Center
12:26AM 38.3500 -106.9772 48° Northeast 285 328 33,000  Level Denver Center
12:27AM 38.4044 -106.9025 47° Northeast 287 330 33,000  Level Denver Center
12:28AM 38.4667 -106.8150 48° Northeast 281 323 33,000  Level Denver Center
12:29AM 38.5192 -106.7400 48° Northeast 282 325 33,000  Level Denver Center
12:30AM 38.5714 -106.6664 48° Northeast 281 323 33,000  Level Denver Center
12:31AM 38.6233 -106.5925 48° Northeast 281 323 33,000 -540 Level Denver Center
12:32AM 38.6758 -106.5181 48° Northeast 283 326 32,000 -1,080 Descending Denver Center
12:33AM 38.7278 -106.4436 48° Northeast 281 323 30,900 -1,140 Descending Denver Center
12:34AM 38.7819 -106.3658 48° Northeast 290 334 29,800 -1,140 Descending Denver Center
12:35AM 38.8369 -106.2875 48° Northeast 295 339 28,700 -1,140 Descending Denver Center
12:36AM 38.8942 -106.2047 48° Northeast 297 342 27,500 -1,260 Descending Denver Center
12:37AM 38.9531 -106.1192 48° Northeast 299 344 26,200 -1,200 Descending Denver Center
12:38AM 39.0086 -106.0400 48° Northeast 299 344 25,100 -1,140 Descending Denver Center
12:39AM 39.0644 -105.9606 48° Northeast 300 345 23,900 -1,200 Descending Denver Center
12:40AM 39.1208 -105.8783 49° Northeast 305 351 22,700 -1,140 Descending Denver Center
12:41AM 39.1764 -105.7975 48° Northeast 303 349 21,600 -1,320 Descending Denver Center
12:42AM 39.2319 -105.7175 48° Northeast 300 345 20,100 -1,320 Descending Denver Center
12:43AM 39.2856 -105.6397 48° Northeast 292 336 19,000 -1,140 Descending Denver Center
12:44AM 39.3389 -105.5619 48° Northeast 290 334 17,900 -960 Descending Denver Center
12:45AM 39.3917 -105.4847 48° Northeast 289 333 17,100 -960 Descending Denver Center
12:46AM 39.4403 -105.4042 52° Northeast 266 306 16,000 -1,200 Descending Denver Center
12:47AM 39.4844 -105.3294 53° Northeast 246 283 14,800 -1,140 Descending Denver Center
12:48AM 39.5242 -105.2608 53° Northeast 239 275 13,800 -1,080 Descending Denver Center
12:49AM 39.5650 -105.1906 53° Northeast 245 282 12,700 -1,080 Descending Denver Center
12:50AM 39.6044 -105.1208 54° Northeast 241 277 11,700 -840 Descending Denver Center
12:51AM 39.6447 -105.0542 52° Northeast 236 272 11,100 -960 Descending Denver Center
12:52AM 39.6944 -104.9992 40° Northeast 242 278 9,800 -1,500 Descending Denver Center
12:53AM 39.7600 -104.9983 North 235 270 8,100 -1,380 Descending Denver Center
12:54AM 39.8167 -105.0128 349° North 211 243 7,100 -1,020 Descending Denver Center